Regional Weather Roundup
Issued by NWS

Home | Current Version | Previous Version | Graphics & Text | Print | Product List | Glossary On
Versions: 1 2 3 4 5 6 7 8 9 10 11 12 13 14 15 16 17 18 19 20 21 22 23 24 25 26 27 28 29 30 31 32 33 34 35 36 37 38 39 40 41 42 43 44 45 46 47 48 49 50
000
ASUS43 KLMK 250802
RWRKY
KENTUCKY REGIONAL WEATHER ROUNDUP
NATIONAL WEATHER SERVICE LOUISVILLE KY
400 AM EDT FRI JUL 25 2014

NOTE "FAIR" INDICATES FEW OR NO CLOUDS BELOW 12,000 FEET
WITH NO SIGNIFICANT WEATHER AND/OR OBSTRUCTIONS TO VISIBILITY.

KYZ001>023-026-027-061>063-070>075-250900-
WESTERN AND SOUTH CENTRAL KENTUCKY

CITY           SKY/WX    TMP DP  RH WIND       PRES   REMARKS
PADUCAH        CLEAR     59  56  89 CALM      30.05R
HENDERSON      CLEAR     55  52  88 CALM      30.05R
OWENSBORO      CLEAR     62  54  75 CALM      30.06R
HOPKINSVILLE   CLEAR     59  56  89 NE5       30.03S
BOWLING GREEN  CLEAR     59  55  87 CALM      30.04S
GLASGOW        CLEAR     57  55  94 CALM      30.04S
$$

KYZ024-025-028>034-038-045-046-053-250900-
NORTH CENTRAL KENTUCKY

CITY           SKY/WX    TMP DP  RH WIND       PRES   REMARKS
LOUISVILLE/SDF PTCLDY    63  56  78 NW7       30.06R
LOUISVILLE/LOU CLEAR     62  55  77 NW5       30.07R
FORT KNOX      CLEAR     56  54  95 N3        30.05R
$$

KYZ035>037-039>044-047>052-055>060-089>105-250900-
NORTHEAST KENTUCKY

CITY           SKY/WX    TMP DP  RH WIND       PRES   REMARKS
LEXINGTON      CLEAR     58  54  86 CALM      30.06S
COVINGTON      CLEAR     61  50  67 E6        30.07R
FRANKFORT      CLEAR     58  55  90 CALM      30.05F
$$

KYZ054-064>069-076>088-106>120-250900-
SOUTHEAST KENTUCKY

CITY           SKY/WX    TMP DP  RH WIND       PRES   REMARKS
JACKSON        FOG       60  58  92 CALM      30.07R VSB 1/4
LONDON         FOG       59  58  96 SE3       30.07R VSB 1/4
SOMERSET       FOG       61  61 100 CALM      30.07S VSB 1/4
MIDDLESBORO    CLOUDY    61  60  97 CALM      30.07S
MONTICELLO     FOG       57  57 100 CALM      30.07S VSB 3/4
$$




USA.gov is the U.S. government's official web portal to all federal, state and local government web resources and services.